Dewpoint
53 52 52 51 51 50 50 50 49 50 50 51 51 52 52 54 55 52 49 49 47 44 45 44 41 41 40 39 36 37 32 33 29 25 29 30 29 31 30 33 34 32 34 36 36 33 31 41 41 38 41 43 43 43
52 52 51 51 50 50 50 50 50 50 50 51 50 51 51 52 55 54 46 49 49 47 44 45 43 42 42 41 38 37 33 33 32 29 34 34 32 33 34 31 35 34 37 37 37 37 40 40 42 43 43 43 43 43
51 51 51 51 50 50 50 50 49 48 50 50 50 50 51 52 54 53 48 49 48 44 43 41 41 41 43 42 41 37 35 34 32 37 36 35 32 36 33 33 35 36 41 39 38 38 39 41 42 43 44 44 45 45
51 50 50 49 49 49 49 49 49 50 50 49 50 50 51 51 53 53 48 49 48 45 40 40 42 38 40 40 42 38 33 33 34 40 38 37 36 40 37 38 38 38 40 38 38 39 41 43 44 45 46 46 47 48
50 49 49 49 49 50 49 50 50 50 50 50 50 50 51 51 53 52 49 49 49 46 41 41 43 42 41 39 37 35 35 35 39 38 38 38 40 39 41 40 38 40 41 42 40 42 45 47 47 48 48 48 49 49
50 49 49 50 50 50 50 50 50 49 50 50 50 50 51 52 53 48 47 49 49 49 45 38 41 41 40 39 38 36 37 38 41 40 40 42 43 41 37 36 40 43 46 46 46 49 50 51 51 50 51 52 52 51
49 49 49 49 49 49 49 49 49 49 50 50 50 51 52 52 51 45 46 49 50 48 42 39 39 41 41 39 38 39 39 41 42 43 41 42 43 44 40 37 41 42 45 46 49 51 52 52 52 52 51 53 54 53
49 49 49 49 49 49 49 49 49 50 50 50 50 51 52 52 51 48 48 50 50 45 44 38 38 40 40 36 36 43 45 45 45 44 44 43 45 42 41 42 43 45 47 49 53 55 55 55 52 51 53 54 52 52
49 49 50 50 49 49 49 50 50 50 50 50 51 51 50 49 46 48 51 50 49 46 41 41 37 38 43 39 47 47 48 44 47 43 43 43 43 42 43 44 45 49 50 52 54 55 55 51 51 50 50 51 51 51
49 49 50 50 49 49 50 50 50 50 51 50 48 48 45 49 52 50 48 46 45 44 41 41 41 38 39 40 42 44 47 44 40 45 46 42 44 47 47 48 50 54 56 56 55 52 52 51 51 50 49 50 50 52
49 49 50 50 50 49 49 50 50 51 50 49 47 47 50 53 49 48 44 43 42 40 40 41 40 37 41 37 41 45 44 45 41 43 46 46 46 48 50 52 56 56 57 58 57 57 56 52 52 53 52 51 54 55
49 49 50 50 50 49 49 50 50 47 49 47 47 48 48 48 46 42 40 41 41 37 41 39 41 40 41 46 43 45 42 45 38 49 47 46 49 50 51 53 55 55 57 57 58 56 57 56 54 56 56 56 55 56
48 49 50 51 50 50 49 50 50 50 50 49 47 45 45 41 38 37 31 34 38 44 47 47 44 42 43 47 46 44 43 42 46 45 45 48 48 50 52 54 55 56 57 58 59 59 58 57 57 56 56 56 56 56
48 50 50 51 51 50 51 52 52 49 48 44 42 35 40 37 37 38 40 44 47 48 48 47 46 48 48 46 45 40 45 45 43 43 44 46 48 51 54 55 55 56 58 58 58 56 56 56 56 56 56 56 54 53
49 50 50 50 51 52 53 52 51 49 47 42 42 34 37 38 42 47 47 45 49 51 50 49 48 49 47 44 44 42 42 41 44 44 46 47 51 53 53 55 55 57 58 57 57 56 56 56 56 56 56 55 54 54
49 49 49 51 51 51 52 51 49 48 46 43 42 40 39 40 42 42 44 44 49 50 50 50 46 44 41 43 41 40 41 41 45 45 45 51 52 53 52 55 57 58 57 57 56 56 56 56 55 55 55 55 55 55
48 46 50 50 50 50 50 49 47 45 42 41 39 41 40 39 39 43 46 47 51 48 45 47 43 39 45 42 42 44 42 43 44 45 48 53 54 53 54 57 58 57 56 56 56 56 56 56 55 54 54 54 55 52
45 49 49 49 49 49 49 48 45 43 40 40 37 38 39 40 41 43 46 50 49 48 47 45 46 40 41 41 43 47 47 47 47 49 52 55 54 54 56 56 58 58 57 56 56 55 55 55 55 55 55 54 52 46
45 47 49 50 48 45 44 45 45 40 39 39 40 40 40 40 40 41 41 46 50 51 49 47 42 39 43 47 48 49 48 46 46 52 55 54 55 54 56 57 58 58 57 57 56 55 55 56 58 58 58 56 53 53
49 49 49 50 48 43 43 43 46 42 39 39 40 39 39 39 40 41 41 43 47 47 46 44 40 44 44 49 49 51 49 50 52 52 54 55 56 55 57 56 57 58 58 58 58 54 58 58 58 58 55 53 52 52
49 49 50 50 45 45 43 42 41 42 40 39 40 41 41 41 40 41 42 42 42 43 41 42 41 46 47 52 54 54 52 53 53 55 55 54 54 56 56 57 57 58 58 58 58 57 56 57 53 53 52 52 51 52
48 49 48 48 44 44 43 42 41 42 42 41 39 38 37 37 38 39 41 42 41 41 43 42 43 45 47 50 51 53 54 54 56 57 55 55 55 54 55 57 57 58 58 58 59 58 54 52 52 52 50 49 46 46
48 48 46 45 41 39 37 42 40 41 40 39 40 38 41 42 42 42 40 41 41 43 43 43 44 45 49 52 53 54 54 53 56 57 57 57 55 54 55 56 56 57 57 57 55 52 51 49 49 50 47 45 44 45
48 45 41 41 40 36 40 39 42 41 40 39 39 38 41 44 45 41 39 40 42 43 44 44 45 49 52 52 52 52 53 56 58 58 57 56 54 54 55 55 56 55 54 53 53 52 51 49 45 46 47 47 46 48
39 37 39 35 41 39 37 38 39 39 38 38 39 39 40 44 42 41 41 43 48 50 49 45 50 51 50 51 53 53 55 58 57 56 57 55 54 53 53 53 53 52 53 51 51 51 50 47 46 46 47 49 49 49
34 38 36 38 39 37 38 36 36 38 37 37 42 44 46 44 41 40 44 49 49 50 51 50 51 51 51 51 53 54 57 58 56 54 54 56 53 52 51 52 52 52 54 50 49 48 45 45 47 46 48 49 47 49
34 34 40 41 42 40 39 40 39 38 37 38 43 43 43 40 40 45 49 50 51 52 54 54 53 51 51 55 57 58 59 59 58 58 58 59 54 52 52 51 50 51 53 51 49 45 44 45 46 49 49 50 50 50
38 37 35 41 41 41 38 38 38 40 42 45 44 39 38 39 41 47 50 53 54 55 55 56 55 56 55 55 57 58 60 60 60 61 59 59 54 53 53 52 52 50 52 51 47 44 43 45 47 49 49 48 45 43
34 36 36 37 40 40 39 38 38 45 47 47 44 43 45 48 49 51 54 56 55 54 54 54 53 55 57 59 59 59 59 59 56 48 46 48 51 48 50 50 50 50 49 45 42 43 43 47 48 49 49 49 48 47
35 36 36 37 38 36 37 39 38 39 40 41 44 44 44 46 47 52 56 56 56 55 55 56 57 57 56 56 56 57 59 59 58 53 42 43 45 47 48 45 45 45 45 46 46 46 47 48 48 48 48 47 47 44
37 36 36 36 34 35 36 37 37 37 37 37 39 40 39 39 52 56 56 56 55 56 55 56 56 58 56 57 56 55 55 58 57 56 56 53 45 47 47 46 45 45 45 45 46 47 48 49 49 48 47 45 42 40
35 35 34 34 34 36 38 37 38 38 38 38 38 40 40 40 45 51 55 56 56 56 53 55 56 57 58 59 58 58 50 58 56 56 52 42 45 46 45 44 43 44 45 45 47 47 47 47 48 48 48 48 41 38
37 37 37 37 36 36 38 38 38 38 39 38 38 39 38 37 38 48 56 57 56 57 57 58 58 57 58 57 60 59 54 60 54 44 45 41 43 42 42 42 43 44 44 47 47 47 47 47 48 48 48 48 45 41
Lifted_Index
7 7 8 9 9 9 9 9 8 9 9 10 11 12 13 13 13 13 12 11 11 9 9 10 11 10 10 9 9 9 9 10 10 9 9 8 8 8 8 7 6 5 5 5 4 4 3 2 2 2 3 3 3 2
8 8 9 10 10 10 10 10 10 10 11 11 12 13 14 14 13 13 13 13 12 11 10 10 11 10 10 9 9 9 10 10 10 10 9 8 8 8 7 6 5 5 5 5 4 4 3 3 3 3 3 3 3 3
9 10 11 12 13 13 13 13 13 13 13 13 14 14 15 14 14 14 14 14 13 11 10 9 9 9 9 9 9 9 10 10 10 9 9 8 8 8 7 5 5 5 5 5 4 3 3 3 3 3 3 4 3 3
12 12 13 14 14 15 15 15 15 15 15 15 15 15 15 15 14 14 13 13 13 11 9 8 8 8 8 8 8 9 9 9 9 9 8 8 8 7 6 5 4 4 4 4 3 3 3 3 3 3 3 4 4 3
13 14 14 14 15 15 15 15 15 15 15 15 15 15 14 14 14 13 12 12 12 10 8 7 8 8 8 8 8 8 8 8 8 8 8 7 7 6 5 4 4 3 3 3 3 3 3 3 3 3 3 4 4 4
13 14 14 14 14 15 15 15 15 15 15 15 14 14 14 14 13 12 11 11 11 10 9 8 8 8 8 7 8 7 7 7 7 7 7 6 6 5 4 4 3 3 3 2 3 3 3 3 3 3 3 3 3 4
13 13 13 13 14 14 14 14 14 14 14 14 14 14 13 13 13 12 11 10 10 11 9 8 7 7 7 7 7 7 7 7 7 6 6 6 5 5 4 3 3 3 2 3 3 3 3 3 3 3 3 2 2 3
12 12 12 12 12 13 13 13 13 14 14 14 13 13 13 12 12 11 11 11 11 11 10 8 7 6 6 6 6 6 6 6 6 6 5 5 5 4 3 3 3 3 3 3 3 3 3 3 3 3 3 2 2 2
11 11 11 11 11 11 12 12 12 12 12 12 12 12 11 11 11 11 11 11 11 10 9 8 6 5 5 5 5 4 4 5 5 5 5 4 4 3 3 3 3 3 3 2 3 3 3 3 3 3 2 2 2 2
10 10 10 10 10 10 11 11 11 11 11 10 10 10 10 9 10 10 10 10 10 10 9 8 7 5 5 5 4 4 4 4 4 4 4 3 3 3 3 3 2 2 2 2 2 2 3 3 3 3 2 2 1 1
10 10 9 9 9 10 10 10 10 10 9 9 9 9 9 9 9 9 9 9 9 8 8 7 7 6 5 4 4 4 4 4 4 4 3 3 2 2 2 2 2 1 1 1 2 2 2 3 3 2 2 2 1 1
9 9 9 9 9 9 9 9 9 10 9 9 8 8 8 8 8 7 7 7 7 7 6 6 6 6 4 3 3 4 4 3 3 3 2 2 2 2 2 2 2 1 1 1 1 1 2 2 2 2 2 2 1 1
9 9 8 8 8 8 8 8 9 9 9 8 8 7 7 7 6 6 5 5 5 5 4 4 4 4 3 2 2 3 3 3 3 2 2 2 2 2 2 2 2 1 1 0 1 1 2 2 2 2 2 2 2 2
9 8 8 8 8 7 7 7 7 8 7 7 6 6 6 5 5 5 4 4 4 4 3 3 2 2 2 2 2 2 3 3 2 2 2 2 2 2 1 1 2 1 1 1 1 1 2 2 2 2 2 2 2 2
8 8 7 7 7 6 6 6 6 6 6 5 5 5 5 5 4 4 4 4 3 3 3 2 2 1 1 1 2 2 2 2 2 2 2 2 2 2 1 1 2 1 1 1 1 1 2 2 2 2 2 3 3 3
8 8 7 6 6 6 5 5 5 5 5 4 5 5 4 4 3 3 3 3 3 3 3 2 1 0 0 1 1 2 2 2 1 2 2 1 1 2 1 1 2 2 2 1 1 1 2 2 2 3 3 3 3 3
8 7 6 6 6 6 5 5 5 4 4 4 5 4 4 4 3 3 3 3 3 3 2 2 1 0 0 0 0 1 1 1 1 2 1 1 1 1 1 1 2 2 2 2 1 2 2 2 3 3 3 3 4 4
7 7 6 6 6 6 5 5 4 4 4 4 4 4 4 4 3 3 2 2 2 2 2 1 1 0 0 0 0 0 0 1 2 1 1 1 1 1 1 1 2 2 2 2 2 2 2 2 2 2 3 3 4 5
7 7 6 6 6 6 5 5 4 4 4 4 4 4 4 3 3 2 2 2 2 2 2 1 1 1 1 1 0 0 0 1 1 1 0 1 1 1 1 1 1 2 2 2 2 2 2 2 2 2 3 4 4 4
6 6 6 6 6 6 5 5 4 4 4 4 4 4 3 3 2 2 2 2 2 2 2 1 1 1 0 0 0 0 0 1 1 0 0 0 0 0 1 1 1 1 1 1 2 1 1 2 2 2 3 3 4 4
6 6 6 6 6 6 5 5 4 4 4 4 4 3 3 2 2 2 2 2 2 2 1 1 1 1 0 -0 -0 -0 0 1 1 0 0 0 0 0 0 1 1 1 1 1 1 1 1 2 2 3 3 4 4 4
6 6 6 6 6 5 5 5 5 4 4 4 3 3 2 2 2 2 2 1 1 1 1 1 1 1 1 0 -0 0 1 1 1 1 1 1 1 1 0 1 1 1 0 1 1 2 2 3 3 4 4 4 5 5
6 6 6 6 5 5 5 5 4 4 4 3 3 2 1 1 1 1 1 1 1 1 1 2 2 1 1 0 0 1 1 1 1 1 0 0 1 1 1 1 1 1 1 1 2 2 3 3 4 4 5 5 5 5
7 6 6 5 5 5 5 5 4 4 3 3 2 2 1 1 1 0 0 0 -0 0 1 1 1 1 1 1 1 1 1 1 1 0 0 0 1 1 1 1 1 2 2 2 2 3 3 4 4 5 5 5 5 5
6 6 6 5 5 5 5 4 4 4 3 3 2 2 1 1 1 1 1 0 0 -0 0 1 1 0 1 1 1 1 1 1 0 0 0 1 1 1 1 2 2 2 2 3 3 4 4 4 5 5 4 4 4 4
6 6 5 5 5 5 5 4 4 4 3 3 2 2 2 1 1 1 1 1 0 -0 0 0 0 0 1 1 1 1 1 1 1 1 1 1 1 2 2 2 2 2 3 4 4 4 5 4 4 4 4 3 3 3
6 6 5 5 5 5 5 4 4 4 3 3 2 2 2 1 1 1 1 1 1 0 0 0 0 0 1 1 1 1 1 1 1 1 0 0 1 2 2 2 2 3 3 4 4 5 4 4 4 3 3 3 4 4
6 6 5 5 5 5 5 4 4 3 3 3 2 2 2 2 2 2 1 1 1 1 0 0 0 1 1 1 1 1 1 1 1 1 0 0 1 2 2 2 2 3 3 4 4 4 4 4 3 3 3 4 4 4
6 6 5 5 5 4 5 4 4 3 3 3 3 3 2 2 2 2 1 1 1 0 0 0 1 1 1 1 1 1 1 1 1 1 1 1 1 2 2 2 2 2 3 3 4 4 4 3 3 3 3 4 4 4
6 6 5 5 5 5 5 4 4 3 3 3 3 3 3 2 2 1 1 1 0 0 1 1 1 1 1 1 1 1 1 1 1 2 2 2 2 2 2 2 2 2 3 4 4 3 3 3 3 3 3 3 4 4
6 6 5 5 5 5 5 4 4 4 4 4 3 3 3 2 1 0 1 1 1 1 1 1 1 1 1 1 1 1 1 1 1 2 2 3 3 3 3 3 3 3 4 4 3 3 2 2 2 3 3 3 3 4
5 5 5 4 4 4 4 4 4 4 3 3 3 3 2 2 1 0 1 1 1 1 1 1 1 1 1 1 1 1 1 1 2 2 3 4 4 4 4 4 4 4 4 4 3 3 2 2 2 2 2 3 3 3
5 5 4 3 3 3 3 4 4 3 3 3 2 2 2 2 1 1 1 1 1 1 1 1 1 1 1 1 1 1 1 1 2 2 3 4 5 5 5 5 5 4 4 3 3 2 2 2 2 2 2 2 3 3